Regional Weather Roundup
Issued by NWS

Home | Current Version | Previous Version | Text Only | Print | Product List | Glossary On
Versions: 1 2 3 4 5 6 7 8 9 10 11 12 13 14 15 16 17 18 19 20 21 22 23 24 25 26 27 28 29 30 31 32 33 34 35 36 37 38 39 40 41 42 43 44 45 46 47 48 49 50
000
ASUS44 KEWX 272002
RWRTX
SOUTH TEXAS REGIONAL WEATHER ROUNDUP
NATIONAL WEATHER SERVICE AUSTIN/SAN ANTONIO TX
200 PM CST TUE JAN 27 2015

NOTE: "FAIR" INDICATED FEW OR NO CLOUDS BELOW 12,000 FEET WITH NO
SIGNIFICANT WEATHER AND/OR OBSTRUCTIONS TO VISIBILITY.

* - THESE STATIONS ARE NOT NWS OR FAA STATIONS...AND ARE NOT SUBJECT
    TO NWS AND FAA QUALITY CONTROL.

TXZ171-172-183>190-272100-
TEXAS HILL COUNTRY AND EDWARDS PLATEAU

CITY           SKY/WX    TMP DP  RH WIND       PRES   REMARKS
JUNCTION       SUNNY     76  31  19 SW5       30.17F
*LLANO         SUNNY     75  43  31 CALM      30.19F
BURNET         SUNNY     78  37  22 VRB3      30.17F
*HORSESHOE BAY SUNNY     76  37  24 CALM      30.16F
*KERRVILLE     SUNNY     77  25  14 CALM      30.18F
*FREDERICKSBRG SUNNY     75  33  21 CALM      30.17F
*ROCKSPRINGS   SUNNY     75  32  20 W5        30.22F
*BOERNE STAGE  SUNNY     82  28  14 CALM      30.18F
*CASTROVILLE   SUNNY     78  34  20 CALM      30.18F
HONDO          SUNNY     78  34  20 SW6       30.18F
*UVALDE        SUNNY     77  36  22 W6        30.17F
DEL RIO        SUNNY     75  40  28 W5        30.16F
LAUGHLIN AFB   SUNNY     74  42  30 VRB6      30.17F
CARRIZO SPRGS  SUNNY     77  36  22 CALM      30.15F
$$

TXZ173-191>194-202-209-217>225-228-272100-
CENTRAL AND SOUTH CENTRAL TEXAS

CITY           SKY/WX    TMP DP  RH WIND       PRES   REMARKS
GEORGETOWN     SUNNY     79  41  25 NE5       30.13F
AUSTIN/BERGSTM MOSUNNY   77  42  28 MISG      30.13F
AUSTIN/MABRY   SUNNY     80  40  23 N5        30.14F
*AUSTIN/EXEC   SUNNY     77  43  29 N6        30.15F
*LAGO VISTA    SUNNY     78  35  21 N3        30.16F
SAN MARCOS     SUNNY     79  43  27 VRB3      30.14F
NEW BRAUNFELS  SUNNY     79  43  27 VRB3      30.13F
RANDOLPH AFB   SUNNY     78  36  21 CALM      30.14F
PT SAN ANTONIO SUNNY     79  38  22 VRB7      30.14F
SAN ANTONIO    MOSUNNY   79  36  21 SW6       30.15F
STINSON FIELD  SUNNY     78  36  21 SW8       30.13F
*PLEASANTON    SUNNY     78  38  23 CALM      30.16F
*LA GRANGE     SUNNY     76  46  34 CALM      30.12F
*GIDDINGS      SUNNY     75  42  30 CALM      30.17F
*GONZALES      SUNNY     78  43  29 NW5       30.14F
$$

TXZ163>164-176>182-195>201-210>213-226-227-235-272100-
SOUTHEAST TEXAS

CITY           SKY/WX    TMP DP  RH WIND       PRES   REMARKS
COLLEGE STN    SUNNY     77  41  27 CALM      30.13F
*BRYAN         SUNNY     77  42  28 CALM      30.14F
*CALDWELL      SUNNY     75  36  23 CALM      30.17F
*CROCKETT      SUNNY     79  46  31 CALM      30.14F
*BRENHAM       SUNNY     76  43  30 NW3       30.14F
HUNTSVILLE     SUNNY     75  42  30 VRB5      30.11F
CONROE         SUNNY     75  41  29 CALM      30.11F
HOUSTON BUSH   SUNNY     77  42  28 NW6       30.11F
HOUSTON HOBBY  SUNNY     76  41  28 NW7       30.10F
*HOUSTON SW AP SUNNY     74  47  39 W5        30.12F
PEARLAND       SUNNY     76  41  28 NW6       30.12F
HOUSTON HOOKS  SUNNY     78  42  27 VRB7      30.11F
ELLINGTON FLD  NOT AVBL
SUGAR LAND     SUNNY     77  44  30 W8        30.11F
*HOUSTON EXEC    N/A    N/A N/A N/A MISG        N/A
*CLEVELAND MUN NOT AVBL
*WHARTON       SUNNY     75  44  33 W8        30.14F
*COLUMBUS      FAIR      75  44  33 NW7       30.12F
$$

TXZ214>216-236>238-272100-
THE UPPER TEXAS COAST

CITY           SKY/WX    TMP DP  RH WIND       PRES   REMARKS
*ORANGE        SUNNY     75  43  31 E5        30.11F
PORT ARTHUR    SUNNY     77  42  28 CALM      30.10F
GALVESTON      SUNNY     75  46  35 NW6       30.11F
ANGLETON       SUNNY     75  45  34 W8        30.11F
*BAY CITY      SUNNY     76  45  32 W10       30.13F
PALACIOS       SUNNY     77  45  32 W13G20    30.13F
$$

TXZ229>234-239>247-272100-
TEXAS COASTAL BEND AND RIO GRANDE PLAINS

CITY           SKY/WX    TMP DP  RH WIND       PRES   REMARKS
VICTORIA       SUNNY     80  42  25 W13       30.14F
*BEEVILLE      SUNNY     77  39  25 NW7       30.16F
ROCKPORT       SUNNY     79  40  24 W7        30.15F
*PORT ARANSAS  SUNNY     74  41  31 W7        30.17F
*PORT LAVACA   SUNNY     77  44  30 W12       30.14F
*INGLESIDE     SUNNY     79  39  23 SW13      30.16F
CORPUS CHRISTI MOSUNNY   79  38  22 W9        30.15F
CORPUS NAS     SUNNY     79  40  24 W8        30.16F
*ROBSTOWN      SUNNY     79  35  20 W5        30.17F
ALICE          SUNNY     81  37  20 NW7       30.15F
KINGSVILLE NAS MOSUNNY   81  39  22 CALM      30.16F
COTULLA        SUNNY     80  34  19 CALM      30.16F
*FAITH RANCH   SUNNY     77  32  19 SW3       30.18F
LAREDO         SUNNY     79  37  22 S5        30.19F
$$

TXZ248>255-272100-
DEEP SOUTH TEXAS

CITY           SKY/WX    TMP DP  RH WIND       PRES   REMARKS
BROWNSVILLE    SUNNY     78  38  23 S7        30.18F
PORT ISABEL    SUNNY     79  39  23 VRB5      30.17F
*SOUTH PADRE   SUNNY    N/A N/A N/A S5        30.18F
HARLINGEN      SUNNY     79  37  22 VRB6      30.17F
*HEBBRONVILLE  SUNNY     77  34  20 S3        30.18F
MCALLEN        SUNNY     79  40  24 SE6       30.18F
*WESLACO       SUNNY     78  39  24 S5        30.18F
FALFURRIAS     SUNNY     82  29  15 W7        30.16F
EDINBURG       SUNNY     81  28  14 S7        30.18F
*ZAPATA        SUNNY     78  37  22 CALM      30.17F
$$

TXZ213>215-236>238-242>244-246-247-251-254-255-272100-
CMAN STATIONS

STATION/POSITION TIME  TEMP    WIND        PRES    WAVE
                       AIR SEA DIR/SP/G            HT/PER
                 (UTC) (F)     (DEG/KT/KT) (MB)    (FT/S)
SABINE PASS      1900   71 53   CALM  /  2 1019.6
SEA RIM ST PARK  1900   63     210/  7/  8 1020.4
NORTH JETTY/GLS  1900   71 55   40/  3/  3   N/A
EAGLE POINT      1900   67 57   50/  5/  7 1019.7
MORGANS POINT    1900   71     320/  5/  7 1019.5
MISSION/ARANSAS  1900   65     VRB  9      1022.0
PORT O`CONNOR    1900          230/ 10/ 12   N/A
PORT ARANSAS     1900   71 58  250/ 11/ 13 1023.0
MALAQUITE BEACH  1900   65 61  110/  4/  6 1021.3
BAFFIN BAY       1900   74     270/  2/  3 1021.9
PORT ISABEL      1900   76 57  220/  4/  8 1022.2
$$

GMZ080-GMZ150>470-272100-
OFFSHORE BUOY REPORTS

STATION/POSITION TIME  TEMP    WIND        PRES    WAVE
                       AIR SEA DIR/SP/G            HT/PER
                 (UTC) (F)     (DEG/KT/KT) (MB)    (FT/S)
20 E GALVESTON   2000   58 58  210/  4/  6 1019.6    1/ 4
90 E PT ARANSAS  2000   67 68  260/ 16/ 17 1021.2    4/ 5
35 NE PT MANSFLD 2000   65 67  260/  8/  8 1022.0    1/ 3
200 E PT ISABEL  2000   70 72  310/ 14/ 17 1021.5    2/ 5
$$


USA.gov is the U.S. government's official web portal to all federal, state and local government web resources and services.